Retour au catalogue

CZ-3C DEB

LostHEO
NORAD 48547·DEBRIS·🇨🇳 China

Lancé Feb 24, 2012 depuis Xichang Satellite Launch Center

Loading…

Prochains Passages (prochaines 24 heures)

TLE

PériméSource: Space-Track

Époque: Sep 13, 2024, 18:55 UTC

1 48547U 12008AS  24257.78880823  .00063105  00000-0  68921-1 0  9995
2 48547  20.2318   7.3626 6418283 258.6352  27.8785  3.34878145 96558

Suivez CZ-3C DEB en temps réel avec AllMySat

Download on the App Store